Location: Newark
(42.9260°N, 89.3850°W)
Time: 01:23:38
(UTC+00:00)

STARLINK 1042 - Pass Details

Date: 12 December 2019
Orbit: 548 x 551 km, 53.0° (Epoch: 19 January)

Event Time Altitude Azimuth Distance (km) Brightness Sun altitude
Exits shadow 10:16:51 23° 100° (E) 1,214 5.9 -32.4°
Drops below altitude 10° 10:18:38 10° 109° (ESE) 1,864 7.1 -32.1°
Sets 10:20:55 0° 114° (ESE) 2,759 8.2 -31.7°
